Location: Asni�res
(49.1337°N, 2.3555°E)
Time: 18:27:20
(UTC+00:00)

Cosmos 1535 Rocket - Pass Details

Date: 31 May 2022
Orbit: 949 x 1003 km, 83.0° (Epoch: 28 June)

Event Time Altitude Azimuth Distance (km) Brightness Sun altitude
Rises 01:58:09 0° 0° (N) 3,663 8.6 -13.3°
Reaches altitude 10° 02:01:55 10° 23° (NNE) 2,723 8.3 -13.0°
Maximum altitude 02:05:26 15° 58° (ENE) 2,359 7.5 -12.7°
Drops below altitude 10° 02:08:58 10° 93° (E) 2,736 7.3 -12.4°
Sets 02:12:44 0° 115° (ESE) 3,690 7.6 -12.0°
